CW1936 Weather Reports


time (UTC)temp
F
wind
direction
speed
knots
gust
knots
rain 1hr
in
rain 24hr
in
rain mn
in
humidity
%
barometer
mb
20260504081525 64 125 3.5 13.9 0.00 0.08 0.06 52 1017.7
20260504044546 57 337 0.9 5.2 0.00 0.07 0.04 65 1016.3
20260504043044 57 124 1.7 6.1 0.00 0.07 0.04 64 1016.2
20260504041545 57 19 1.7 5.2 0.00 0.07 0.04 65 1016.1
20260504040041 57 309 1.7 6.1 0.00 0.07 0.04 67 1015.8
20260504034541 57 338 1.7 5.2 0.00 0.07 0.04 68 1015.7
20260504033035 57 278 0.9 7.0 0.00 0.07 0.04 67 1015.6
20260504031536 56 327 0.9 6.1 0.00 0.07 0.04 67 1015.5
20260504030041 56 11 0.0 3.5 0.00 0.07 0.04 66 1015.4
20260504024534 56 44 1.7 6.1 0.00 0.08 0.04 66 1015.4
20260504023033 56 355 0.9 10.4 0.00 0.08 0.04 65 1015.3
20260504021535 56 91 1.7 0.0 0.00 0.00 0.04 66 1015.4
20260504020036 56 354 0.9 7.8 0.00 0.08 0.04 65 1015.3
20260504014536 56 13 1.7 8.7 0.00 0.09 0.04 64 1015.3
20260504013033 56 349 2.6 7.0 0.00 0.09 0.04 64 1015.5
20260504011529 56 343 0.0 9.6 0.00 0.09 0.04 65 1015.4
20260504010029 57 294 0.9 10.4 0.00 0.09 0.04 64 1015.4
20260504004529 57 117 1.7 9.6 0.00 0.09 0.04 64 1015.3
20260504003025 57 283 2.6 8.7 0.00 0.09 0.04 65 1015.1
20260504001525 56 329 0.0 8.7 0.00 0.09 0.04 67 1015.1
20260504000022 56 248 0.9 7.8 0.00 0.09 0.04 65 1015.2
20260503234535 56 342 0.9 7.8 0.00 0.09 0.04 65 1015.1
20260503233021 56 283 0.9 10.4 0.00 0.09 0.04 66 1015.2
20260503231519 56 161 1.7 10.4 0.00 0.09 0.04 67 1015.2
20260503230022 56 318 0.9 8.7 0.00 0.09 0.04 67 1015.3
20260503224517 56 308 0.9 7.0 0.00 0.10 0.04 68 1015.3
20260503223017 55 259 2.6 8.7 0.00 0.10 0.04 69 1015.2
20260503221519 55 280 2.6 8.7 0.00 0.10 0.04 72 1015.3
20260503220035 54 39 0.9 5.2 0.04 0.10 0.04 75 1015.4
20260503214514 53 16 0.9 6.1 0.04 0.15 0.04 79 1015.4
20260503213014 53 267 0.9 11.3 0.05 0.15 0.04 80 1015.3
20260503211510 53 321 0.9 15.6 0.05 0.15 0.04 76 1015.3
20260503210007 56 136 0.0 7.8 0.01 0.11 0.11 68 1015.2
20260503204506 56 96 0.9 10.4 0.01 0.11 0.11 70 1015.0
20260503203010 57 302 3.5 11.3 0.00 0.10 0.10 64 1014.9
20260503201503 57 68 3.5 9.6 0.00 0.10 0.10 65 1014.8
20260503200002 56 246 1.7 9.6 0.00 0.10 0.10 65 1014.7
20260503194502 56 177 1.7 8.7 0.00 0.10 0.10 64 1014.6
20260503193000 56 321 1.7 9.6 0.00 0.10 0.10 64 1014.7
20260503191609 56 251 3.5 9.6 0.00 0.10 0.10 62 1014.8
20260503190100 56 282 2.6 13.0 0.00 0.10 0.10 63 1014.7
20260503184610 56 269 1.7 9.6 0.00 0.10 0.10 60 1014.5
20260503183109 56 63 0.9 13.9 0.00 0.10 0.10 60 1014.5
20260503181609 56 290 2.6 12.2 0.00 0.10 0.10 61 1014.5
20260503180056 55 256 0.0 5.2 0.00 0.10 0.10 68 1014.4
20260503174555 55 275 0.0 9.6 0.00 0.10 0.10 67 1014.4
20260503173100 54 92 0.0 5.2 0.00 0.10 0.10 68 1014.4
20260503171553 54 335 0.0 13.0 0.01 0.10 0.10 71 1014.4